Cosmos 1812 - Orbit

View from above orbital plane
View from above orbital plane
View from above satellite
View from above satellite

Ground track
Ground track

The orbit data is extracted from the following two-line orbital elements,

1 17295U 87003A   13141.13317963  .00003086  00000-0  20755-3 0   467
2 17295 082.5204 161.1997 0011421 185.2246 236.7267 15.06377441434224
Epoch (UTC): 21 May 2013 03:11:46
Eccentricity: 0.0011421
inclination: 82.5204°
perigee height: 539 km
apogee height: 555 km
right ascension of ascending node: 161.1997°
argument of perigee: 185.2246°
revolutions per day: 15.06377441
mean anomaly at epoch: 236.7267°
orbit number at epoch: 43422

The dashed part of the orbit path shows where the satellite is in the earth's shadow,  

Developed and maintained by Chris Peat, Heavens-Above GmbH. Please read the updated FAQ before sending e-mail. Imprint. DLR